QPF
0.01 0.01 0.02 0.02 0.03 0.04 0.06 0.05 0.05 0.03 0.02 0.01 0.01 0.01 0.01 0.02 0.02 0.02 0.02 0.02 0.02 0.02 0.01 0.02 0.02 0.03 0.03 0.03 0.02 0.03 0.03 0.04 0.06 0.07 0.09 0.08 0.07 0.07
0.02 0.02 0.02 0.03 0.05 0.06 0.06 0.05 0.04 0.04 0.03 0.02 0.02 0.03 0.03 0.03 0.03 0.02 0.02 0.02 0.01 0.01 0.01 0.01 0.01 0.01 0.03 0.02 0.01 0.01 0.02 0.02 0.03 0.04 0.06 0.08 0.08 0.07
0.03 0.03 0.04 0.05 0.05 0.05 0.04 0.03 0.03 0.03 0.03 0.02 0.03 0.04 0.03 0.03 0.03 0.02 0.02 0.01 0.01 0.01 0.01 0.00 0.00 0.01 0.01 0.01 0.00 0.01 0.01 0.01 0.02 0.03 0.03 0.05 0.08 0.09
0.03 0.03 0.04 0.05 0.04 0.03 0.03 0.02 0.02 0.02 0.03 0.03 0.03 0.02 0.02 0.02 0.03 0.03 0.02 0.02 0.01 0.01 0.01 0.01 0.00 0.01 0.01 0.01 0.01 0.01 0.01 0.01 0.01 0.02 0.02 0.03 0.05 0.07
0.04 0.03 0.03 0.04 0.03 0.02 0.02 0.02 0.02 0.03 0.03 0.03 0.02 0.02 0.02 0.02 0.02 0.02 0.02 0.02 0.01 0.01 0.01 0.01 0.01 0.01 0.01 0.01 0.01 0.01 0.01 0.00 0.01 0.01 0.02 0.02 0.01 0.03
0.03 0.03 0.02 0.02 0.03 0.03 0.03 0.02 0.03 0.03 0.04 0.03 0.02 0.02 0.02 0.02 0.01 0.01 0.01 0.01 0.01 0.01 0.02 0.02 0.02 0.02 0.02 0.02 0.02 0.01 0.01 0.01 0.01 0.02 0.02 0.02 0.02 0.02
0.03 0.02 0.02 0.02 0.02 0.03 0.03 0.03 0.04 0.05 0.05 0.04 0.04 0.03 0.03 0.02 0.02 0.01 0.02 0.02 0.02 0.02 0.02 0.02 0.03 0.03 0.02 0.02 0.03 0.02 0.01 0.01 0.01 0.02 0.02 0.02 0.02 0.02
0.03 0.02 0.02 0.03 0.03 0.03 0.03 0.05 0.06 0.06 0.05 0.05 0.05 0.04 0.03 0.02 0.02 0.03 0.03 0.03 0.03 0.04 0.04 0.04 0.04 0.05 0.04 0.03 0.03 0.02 0.02 0.01 0.01 0.01 0.01 0.01 0.01 0.01
0.03 0.03 0.02 0.02 0.03 0.02 0.02 0.02 0.04 0.05 0.06 0.05 0.05 0.05 0.05 0.04 0.03 0.02 0.02 0.03 0.03 0.04 0.05 0.05 0.06 0.07 0.07 0.06 0.06 0.04 0.03 0.03 0.02 0.01 0.01 0.01 0.01 0.01
0.03 0.03 0.03 0.03 0.03 0.03 0.02 0.01 0.01 0.01 0.02 0.03 0.04 0.04 0.04 0.05 0.05 0.05 0.04 0.04 0.03 0.03 0.03 0.04 0.05 0.06 0.06 0.06 0.08 0.07 0.06 0.05 0.03 0.03 0.02 0.01 0.01 0.01
0.03 0.03 0.03 0.03 0.03 0.03 0.03 0.02 0.01 0.01 0.01 0.03 0.04 0.04 0.05 0.05 0.06 0.06 0.05 0.05 0.04 0.03 0.03 0.04 0.05 0.05 0.05 0.05 0.05 0.06 0.07 0.07 0.06 0.05 0.04 0.03 0.02 0.02
0.03 0.02 0.02 0.02 0.02 0.02 0.02 0.02 0.03 0.02 0.02 0.02 0.02 0.02 0.03 0.04 0.04 0.04 0.03 0.04 0.05 0.05 0.04 0.04 0.05 0.04 0.04 0.04 0.04 0.05 0.05 0.06 0.06 0.05 0.04 0.03 0.03 0.02
0.02 0.02 0.01 0.02 0.02 0.02 0.02 0.02 0.02 0.02 0.02 0.02 0.02 0.02 0.02 0.03 0.04 0.03 0.03 0.04 0.04 0.05 0.04 0.04 0.04 0.03 0.03 0.03 0.02 0.02 0.03 0.04 0.03 0.03 0.03 0.02 0.02 0.01
0.02 0.01 0.01 0.02 0.02 0.02 0.02 0.02 0.03 0.03 0.03 0.02 0.02 0.01 0.01 0.03 0.04 0.05 0.05 0.04 0.04 0.04 0.05 0.04 0.03 0.02 0.03 0.03 0.02 0.01 0.01 0.01 0.01 0.01 0.01 0.01 0.01 0.01
0.03 0.02 0.02 0.02 0.03 0.03 0.03 0.03 0.03 0.03 0.02 0.02 0.01 0.01 0.01 0.02 0.03 0.05 0.07 0.07 0.06 0.04 0.03 0.02 0.02 0.02 0.02 0.02 0.01 0.01 0.01 0.00 0.00 0.00 0.00 0.00 0.00 0.01
0.03 0.03 0.02 0.02 0.02 0.02 0.02 0.03 0.03 0.03 0.03 0.02 0.02 0.02 0.02 0.03 0.03 0.03 0.04 0.05 0.06 0.05 0.03 0.03 0.02 0.02 0.02 0.01 0.01 0.00 0.00 0.00 0.00 0.00 0.00 0.00 0.01 0.01
0.03 0.03 0.02 0.02 0.02 0.01 0.01 0.01 0.02 0.02 0.02 0.02 0.01 0.02 0.02 0.03 0.03 0.04 0.04 0.04 0.04 0.02 0.02 0.01 0.01 0.01 0.01 0.01 0.01 0.01 0.00 0.00 0.00 0.00 0.00 0.00 0.00 0.01
0.04 0.03 0.02 0.02 0.02 0.01 0.01 0.01 0.01 0.01 0.01 0.01 0.01 0.01 0.02 0.02 0.03 0.04 0.05 0.05 0.04 0.03 0.02 0.01 0.01 0.01 0.01 0.01 0.01 0.01 0.01 0.01 0.00 0.00 0.00 0.00 0.01 0.00
0.04 0.04 0.04 0.03 0.03 0.02 0.01 0.01 0.01 0.01 0.01 0.01 0.01 0.01 0.01 0.02 0.02 0.02 0.03 0.04 0.04 0.03 0.03 0.02 0.02 0.02 0.02 0.02 0.01 0.01 0.02 0.02 0.01 0.01 0.00 0.01 0.01 0.01
0.03 0.04 0.04 0.04 0.04 0.03 0.02 0.02 0.02 0.02 0.01 0.01 0.01 0.01 0.01 0.01 0.02 0.01 0.01 0.02 0.02 0.02 0.02 0.02 0.02 0.02 0.02 0.02 0.01 0.02 0.02 0.02 0.02 0.01 0.01 0.01 0.01 0.01
0.02 0.02 0.02 0.02 0.03 0.02 0.02 0.02 0.02 0.02 0.02 0.02 0.02 0.01 0.01 0.01 0.02 0.02 0.01 0.01 0.01 0.02 0.02 0.02 0.03 0.03 0.03 0.03 0.03 0.02 0.02 0.03 0.02 0.02 0.01 0.01 0.01 0.01
0.02 0.02 0.02 0.02 0.02 0.02 0.01 0.01 0.01 0.01 0.02 0.02 0.02 0.02 0.02 0.02 0.02 0.01 0.01 0.01 0.01 0.01 0.02 0.02 0.03 0.03 0.03 0.03 0.03 0.02 0.02 0.02 0.02 0.02 0.02 0.02 0.02 0.01
0.02 0.02 0.02 0.02 0.01 0.01 0.01 0.02 0.02 0.01 0.01 0.01 0.01 0.02 0.02 0.02 0.02 0.02 0.02 0.01 0.01 0.02 0.02 0.02 0.02 0.02 0.03 0.02 0.02 0.02 0.02 0.02 0.02 0.02 0.02 0.02 0.02 0.02
MSLP
1018.77 1018.91 1019.04 1019.13 1019.17 1019.14 1019.03 1018.87 1018.65 1018.40 1018.13 1017.86 1017.58 1017.29 1016.98 1016.65 1016.27 1015.85 1015.40 1014.93 1014.45 1014.00 1013.58 1013.22 1012.92 1012.66 1012.45 1012.28 1012.14 1012.02 1011.93 1011.88 1011.87 1011.93 1012.05 1012.24 1012.49 1012.79
1018.97 1019.09 1019.20 1019.26 1019.28 1019.23 1019.14 1019.00 1018.83 1018.64 1018.45 1018.24 1018.03 1017.79 1017.52 1017.20 1016.82 1016.38 1015.90 1015.39 1014.89 1014.42 1014.00 1013.64 1013.35 1013.10 1012.90 1012.71 1012.54 1012.37 1012.20 1012.06 1011.96 1011.90 1011.92 1012.02 1012.19 1012.43
1019.10 1019.23 1019.32 1019.38 1019.39 1019.35 1019.28 1019.18 1019.07 1018.96 1018.85 1018.72 1018.58 1018.40 1018.16 1017.84 1017.45 1016.98 1016.47 1015.93 1015.39 1014.90 1014.47 1014.11 1013.82 1013.58 1013.37 1013.18 1012.98 1012.76 1012.53 1012.30 1012.10 1011.94 1011.85 1011.86 1011.94 1012.11
1019.18 1019.32 1019.42 1019.47 1019.50 1019.48 1019.45 1019.41 1019.37 1019.34 1019.31 1019.26 1019.19 1019.05 1018.84 1018.54 1018.13 1017.64 1017.10 1016.52 1015.96 1015.44 1015.00 1014.63 1014.34 1014.11 1013.90 1013.69 1013.46 1013.20 1012.91 1012.60 1012.30 1012.05 1011.86 1011.76 1011.76 1011.84
1019.19 1019.35 1019.47 1019.55 1019.60 1019.62 1019.64 1019.65 1019.68 1019.72 1019.77 1019.79 1019.78 1019.69 1019.51 1019.21 1018.81 1018.31 1017.74 1017.15 1016.57 1016.04 1015.59 1015.22 1014.93 1014.69 1014.47 1014.25 1013.99 1013.68 1013.33 1012.95 1012.56 1012.21 1011.93 1011.73 1011.63 1011.62
1019.14 1019.34 1019.49 1019.60 1019.68 1019.74 1019.81 1019.88 1019.96 1020.07 1020.17 1020.25 1020.28 1020.23 1020.08 1019.81 1019.41 1018.92 1018.36 1017.77 1017.19 1016.66 1016.21 1015.85 1015.56 1015.31 1015.08 1014.83 1014.54 1014.18 1013.77 1013.32 1012.86 1012.42 1012.04 1011.75 1011.56 1011.46
1019.03 1019.26 1019.45 1019.60 1019.72 1019.83 1019.93 1020.05 1020.18 1020.32 1020.46 1020.58 1020.64 1020.63 1020.50 1020.26 1019.90 1019.44 1018.90 1018.34 1017.79 1017.29 1016.86 1016.50 1016.20 1015.95 1015.69 1015.41 1015.07 1014.67 1014.20 1013.68 1013.15 1012.64 1012.18 1011.81 1011.52 1011.33
1018.86 1019.13 1019.37 1019.56 1019.72 1019.87 1020.00 1020.14 1020.30 1020.46 1020.62 1020.76 1020.85 1020.86 1020.77 1020.56 1020.25 1019.84 1019.36 1018.86 1018.36 1017.89 1017.49 1017.14 1016.84 1016.56 1016.28 1015.96 1015.57 1015.12 1014.59 1014.02 1013.44 1012.87 1012.34 1011.89 1011.53 1011.25
1018.64 1018.96 1019.23 1019.47 1019.67 1019.85 1020.01 1020.17 1020.34 1020.51 1020.67 1020.82 1020.92 1020.95 1020.89 1020.74 1020.48 1020.14 1019.74 1019.31 1018.87 1018.46 1018.08 1017.75 1017.44 1017.14 1016.82 1016.45 1016.02 1015.51 1014.94 1014.33 1013.70 1013.09 1012.51 1012.01 1011.58 1011.22
1018.37 1018.73 1019.05 1019.33 1019.57 1019.78 1019.97 1020.15 1020.32 1020.49 1020.65 1020.80 1020.91 1020.96 1020.94 1020.84 1020.65 1020.39 1020.07 1019.71 1019.34 1018.98 1018.63 1018.30 1017.98 1017.65 1017.29 1016.88 1016.40 1015.86 1015.26 1014.62 1013.96 1013.32 1012.72 1012.17 1011.69 1011.27
1018.06 1018.46 1018.83 1019.16 1019.45 1019.69 1019.90 1020.09 1020.28 1020.45 1020.61 1020.77 1020.89 1020.97 1020.99 1020.94 1020.82 1020.63 1020.39 1020.10 1019.79 1019.47 1019.14 1018.81 1018.47 1018.11 1017.70 1017.25 1016.74 1016.16 1015.54 1014.90 1014.24 1013.59 1012.97 1012.40 1011.88 1011.41
1017.73 1018.18 1018.59 1018.97 1019.30 1019.58 1019.83 1020.04 1020.24 1020.43 1020.61 1020.77 1020.91 1021.02 1021.08 1021.09 1021.03 1020.90 1020.72 1020.49 1020.23 1019.93 1019.61 1019.27 1018.91 1018.51 1018.07 1017.58 1017.04 1016.45 1015.83 1015.19 1014.55 1013.91 1013.30 1012.72 1012.17 1011.64
1017.40 1017.89 1018.35 1018.77 1019.14 1019.47 1019.75 1020.01 1020.24 1020.45 1020.65 1020.84 1021.01 1021.15 1021.25 1021.29 1021.28 1021.21 1021.08 1020.89 1020.65 1020.36 1020.04 1019.68 1019.29 1018.86 1018.39 1017.88 1017.33 1016.75 1016.14 1015.52 1014.90 1014.28 1013.68 1013.10 1012.53 1011.97
1017.09 1017.61 1018.11 1018.57 1018.98 1019.35 1019.68 1019.97 1020.24 1020.49 1020.73 1020.95 1021.15 1021.33 1021.47 1021.55 1021.58 1021.54 1021.44 1021.27 1021.04 1020.75 1020.41 1020.04 1019.62 1019.17 1018.68 1018.16 1017.61 1017.04 1016.46 1015.87 1015.28 1014.69 1014.11 1013.52 1012.94 1012.35
1016.82 1017.36 1017.88 1018.36 1018.81 1019.22 1019.59 1019.93 1020.24 1020.53 1020.81 1021.07 1021.32 1021.53 1021.70 1021.82 1021.87 1021.86 1021.77 1021.61 1021.38 1021.08 1020.73 1020.34 1019.90 1019.43 1018.94 1018.42 1017.88 1017.33 1016.78 1016.22 1015.66 1015.09 1014.52 1013.94 1013.34 1012.73
1016.57 1017.12 1017.65 1018.16 1018.63 1019.06 1019.46 1019.84 1020.19 1020.53 1020.85 1021.16 1021.44 1021.69 1021.90 1022.04 1022.12 1022.12 1022.04 1021.89 1021.65 1021.35 1020.99 1020.58 1020.14 1019.66 1019.17 1018.65 1018.13 1017.60 1017.07 1016.54 1015.99 1015.44 1014.87 1014.29 1013.67 1013.03
1016.32 1016.87 1017.40 1017.91 1018.39 1018.84 1019.27 1019.68 1020.07 1020.45 1020.81 1021.16 1021.49 1021.78 1022.01 1022.19 1022.29 1022.31 1022.25 1022.09 1021.86 1021.56 1021.19 1020.78 1020.33 1019.86 1019.37 1018.86 1018.35 1017.84 1017.31 1016.78 1016.24 1015.69 1015.11 1014.50 1013.87 1013.20
1016.02 1016.56 1017.09 1017.60 1018.08 1018.54 1018.98 1019.42 1019.84 1020.26 1020.67 1021.06 1021.43 1021.76 1022.04 1022.25 1022.38 1022.42 1022.38 1022.24 1022.02 1021.73 1021.37 1020.97 1020.52 1020.05 1019.56 1019.06 1018.55 1018.03 1017.49 1016.95 1016.39 1015.81 1015.20 1014.57 1013.90 1013.21
1015.61 1016.15 1016.67 1017.18 1017.66 1018.13 1018.59 1019.05 1019.51 1019.96 1020.41 1020.86 1021.27 1021.65 1021.98 1022.23 1022.40 1022.48 1022.47 1022.36 1022.16 1021.89 1021.55 1021.16 1020.72 1020.26 1019.77 1019.26 1018.73 1018.19 1017.63 1017.05 1016.45 1015.82 1015.17 1014.49 1013.79 1013.08
1015.03 1015.58 1016.11 1016.62 1017.11 1017.60 1018.08 1018.57 1019.07 1019.57 1020.07 1020.57 1021.04 1021.47 1021.85 1022.16 1022.38 1022.51 1022.54 1022.47 1022.31 1022.07 1021.76 1021.39 1020.97 1020.50 1020.01 1019.48 1018.93 1018.35 1017.75 1017.12 1016.46 1015.78 1015.07 1014.35 1013.61 1012.87
1014.27 1014.83 1015.37 1015.90 1016.42 1016.94 1017.46 1017.99 1018.54 1019.10 1019.66 1020.22 1020.75 1021.25 1021.69 1022.06 1022.34 1022.53 1022.61 1022.60 1022.48 1022.29 1022.01 1021.66 1021.26 1020.80 1020.30 1019.75 1019.17 1018.55 1017.90 1017.22 1016.50 1015.76 1015.00 1014.23 1013.45 1012.69
1013.33 1013.91 1014.48 1015.04 1015.60 1016.16 1016.74 1017.33 1017.95 1018.57 1019.21 1019.84 1020.45 1021.01 1021.52 1021.96 1022.30 1022.55 1022.69 1022.73 1022.68 1022.52 1022.29 1021.97 1021.59 1021.15 1020.64 1020.09 1019.49 1018.84 1018.15 1017.42 1016.66 1015.87 1015.06 1014.25 1013.45 1012.66
1012.24 1012.84 1013.45 1014.06 1014.68 1015.30 1015.95 1016.62 1017.31 1018.02 1018.74 1019.44 1020.13 1020.77 1021.35 1021.85 1022.26 1022.56 1022.77 1022.87 1022.86 1022.76 1022.57 1022.30 1021.95 1021.53 1021.04 1020.50 1019.89 1019.23 1018.53 1017.78 1016.99 1016.18 1015.36 1014.53 1013.71 1012.91
Thickness
5693 5692 5691 5691 5690 5689 5688 5686 5683 5680 5682 5685 5686 5688 5688 5689 5689 5688 5687 5687 5686 5684 5683 5682 5680 5679 5677 5676 5675 5674 5673 5673 5672 5672 5671 5671 5671 5670
5689 5688 5687 5687 5686 5685 5684 5683 5682 5680 5678 5680 5680 5681 5682 5683 5683 5683 5683 5682 5681 5680 5679 5678 5676 5675 5673 5672 5671 5670 5669 5668 5668 5668 5667 5667 5666 5666
5684 5683 5683 5682 5681 5680 5679 5678 5676 5675 5674 5675 5675 5675 5676 5677 5677 5677 5677 5677 5676 5675 5674 5673 5672 5671 5670 5668 5667 5666 5665 5664 5664 5663 5663 5662 5662 5662
5679 5678 5678 5677 5676 5675 5674 5673 5672 5670 5669 5668 5669 5669 5670 5670 5670 5671 5671 5671 5671 5670 5669 5668 5667 5667 5665 5664 5663 5662 5661 5660 5659 5658 5658 5657 5657 5656
5674 5674 5673 5672 5670 5670 5669 5668 5667 5666 5664 5663 5663 5663 5663 5664 5663 5664 5664 5664 5664 5664 5663 5663 5662 5662 5661 5660 5659 5658 5657 5656 5655 5654 5653 5652 5652 5651
5669 5669 5669 5668 5667 5666 5664 5663 5662 5660 5658 5657 5657 5656 5656 5656 5656 5656 5656 5656 5657 5657 5656 5656 5656 5656 5655 5655 5654 5653 5652 5651 5650 5649 5648 5647 5646 5646
5663 5663 5663 5663 5663 5662 5660 5659 5657 5654 5653 5652 5651 5649 5649 5649 5650 5650 5649 5649 5649 5649 5649 5650 5650 5649 5649 5649 5648 5648 5647 5646 5645 5644 5643 5642 5641 5640
5657 5657 5657 5657 5657 5656 5655 5654 5652 5650 5648 5647 5645 5644 5644 5644 5643 5643 5642 5642 5642 5642 5642 5643 5642 5642 5642 5643 5643 5642 5642 5641 5640 5639 5638 5637 5636 5635
5651 5651 5651 5651 5651 5650 5649 5648 5646 5646 5645 5643 5641 5640 5639 5639 5637 5636 5635 5636 5636 5636 5635 5636 5636 5636 5636 5636 5636 5636 5636 5635 5634 5634 5633 5632 5632 5630
5646 5645 5645 5644 5644 5643 5642 5641 5640 5639 5639 5638 5637 5637 5635 5635 5633 5631 5630 5629 5629 5628 5627 5628 5628 5628 5629 5628 5629 5629 5629 5628 5627 5627 5627 5627 5626 5625
5640 5639 5638 5638 5638 5636 5635 5634 5634 5634 5633 5633 5632 5632 5631 5630 5628 5625 5623 5622 5623 5623 5621 5620 5621 5621 5621 5622 5622 5621 5621 5620 5620 5619 5619 5619 5619 5618
5632 5633 5633 5632 5631 5629 5628 5628 5627 5628 5627 5627 5626 5625 5624 5623 5622 5620 5619 5617 5617 5617 5616 5613 5614 5612 5614 5615 5614 5614 5613 5613 5612 5612 5612 5612 5612 5611
5626 5626 5626 5625 5624 5623 5622 5623 5623 5622 5621 5620 5619 5619 5619 5618 5617 5616 5615 5613 5612 5611 5610 5607 5607 5605 5606 5607 5607 5606 5606 5606 5605 5605 5605 5605 5605 5604
5620 5620 5620 5619 5618 5617 5616 5616 5615 5614 5614 5613 5612 5612 5612 5612 5611 5610 5609 5608 5607 5606 5604 5602 5601 5600 5599 5599 5600 5600 5599 5598 5598 5599 5599 5599 5598 5597
5614 5614 5614 5612 5611 5611 5610 5609 5608 5608 5607 5606 5606 5606 5606 5606 5604 5603 5603 5601 5600 5599 5598 5596 5595 5594 5593 5592 5593 5593 5592 5592 5592 5592 5592 5591 5591 5590
5606 5607 5606 5605 5604 5604 5603 5602 5602 5601 5600 5600 5599 5599 5599 5598 5597 5597 5596 5595 5594 5594 5592 5590 5589 5588 5588 5587 5587 5587 5586 5586 5586 5585 5584 5584 5583 5583
5599 5599 5599 5598 5598 5597 5596 5596 5595 5594 5593 5593 5592 5591 5591 5591 5591 5590 5589 5588 5587 5586 5586 5584 5582 5581 5581 5581 5582 5582 5581 5581 5580 5579 5577 5578 5577 5577
5592 5593 5593 5593 5593 5592 5591 5590 5589 5588 5587 5586 5585 5585 5584 5584 5584 5583 5582 5582 5581 5580 5579 5578 5576 5576 5575 5576 5575 5575 5575 5574 5573 5571 5570 5570 5572 5571
5587 5588 5588 5587 5587 5586 5586 5585 5584 5583 5581 5580 5580 5579 5578 5577 5576 5576 5575 5575 5574 5573 5572 5571 5569 5568 5568 5571 5571 5568 5567 5567 5566 5565 5564 5564 5565 5565
5582 5582 5582 5582 5581 5580 5579 5579 5578 5577 5575 5574 5573 5573 5572 5571 5570 5569 5568 5567 5567 5566 5566 5564 5563 5562 5561 5562 5562 5561 5559 5559 5558 5558 5558 5556 5556 5555
5577 5577 5577 5576 5575 5574 5573 5572 5572 5571 5570 5568 5567 5566 5565 5564 5563 5562 5561 5559 5559 5559 5559 5559 5558 5555 5553 5552 5552 5555 5553 5551 5550 5550 5550 5549 5550 5550
5572 5571 5571 5570 5569 5567 5566 5566 5565 5564 5564 5562 5561 5560 5558 5557 5556 5555 5554 5554 5553 5552 5551 5551 5550 5548 5547 5546 5547 5548 5547 5545 5543 5542 5541 5541 5542 5544
5566 5565 5564 5563 5562 5561 5560 5559 5558 5557 5557 5555 5554 5553 5552 5550 5549 5548 5547 5546 5545 5544 5544 5543 5543 5542 5541 5540 5539 5539 5539 5538 5537 5536 5535 5534 5533 5534